Flag for Germany Weather for the Past 2 Weeks in Osterholz-Scharmbeck, Lower Saxony, Germany

Now
41 °F

Clear.


Feels Like: 37 °F
Forecast: 40 / 57 °F
Wind: 6 mph from Northwest

Location: Bremen Airport

Current Time: May 4, 2016 at 12:47:50 AM

Latest Report: May 3, 2016 at 11:50 PM


Visibility: 10 mi

Pressure: 30.33 "Hg

Humidity: 81%

Dew Point: 36 °F

Location of Osterholz-ScharmbeckLocation

Historic Weather in Osterholz-Scharmbeck — Graph

°F

Osterholz-Scharmbeck Temperature Yesterday

Maximum temperature yesterday: 55 °F (at 3:50 PM)
Minimum temperature yesterday: 41 °F (at 11:20 PM)
Average temperature yesterday: 50 °F

High & Low Weather Summary for the Past Weeks

 TemperatureHumidityPressure
High66 °F (May 2, 2:50 PM)100% (Apr 21, 4:20 AM)30.45 "Hg (Apr 21, 4:20 AM)
Low28 °F (Apr 25, 2:20 AM)37% (May 2, 4:20 PM)29.36 "Hg (Apr 26, 12:20 PM)
Average44 °F77%30.00 "Hg
* Reported Apr 18 11:20 PM — May 3 11:20 PM, Osterholz-Scharmbeck, Weather by CustomWeather, © 2016

Note: Actual official high and low records may vary slightly from our data, if they occured in-between our weather recording intervals... More about our weather records

Advertising

Osterholz-Scharmbeck Weather History for the Previous 24 Hours

Scroll right to see more
 ConditionsComfort  
Time TempWeatherWind HumidityBarometerVisibility
11:20 PM
Tue, May 3
41 °FPassing clouds.6 mph87%30.30 "HgN/A
10:50 PM43 °FPassing clouds.6 mph81%30.30 "HgN/A
10:20 PM46 °FPassing clouds.8 mph76%30.30 "HgN/A
9:50 PM46 °FPassing clouds.8 mph76%30.30 "HgN/A
9:20 PM48 °FPassing clouds.13 mph71%30.27 "HgN/A
8:50 PM48 °FPassing clouds.10 mph71%30.27 "HgN/A
8:20 PM50 °FPassing clouds.13 mph67%30.24 "HgN/A
7:50 PM50 °FPassing clouds.16 mph67%30.24 "HgN/A
7:20 PM52 °FScattered clouds.14 mph62%30.24 "HgN/A
6:50 PM54 °FScattered clouds.16 mph58%30.21 "HgN/A
6:20 PM54 °FScattered clouds.17 mph58%30.21 "HgN/A
5:50 PM54 °FScattered clouds.17 mph54%30.21 "HgN/A
5:20 PM55 °FScattered clouds.17 mph55%30.18 "HgN/A
4:50 PM54 °FScattered clouds.17 mph58%30.18 "HgN/A
4:20 PM55 °FScattered clouds.15 mph59%30.18 "HgN/A
3:50 PM55 °FScattered clouds.17 mph59%30.18 "HgN/A
3:20 PM54 °FScattered clouds.15 mph67%30.15 "HgN/A
2:50 PM52 °FScattered clouds.15 mph67%30.15 "HgN/A
2:20 PM54 °FSprinkles. Broken clouds.13 mph72%30.15 "HgN/A
1:20 PM50 °FSprinkles. Broken clouds.15 mph82%30.12 "HgN/A
12:50 PM54 °FBroken clouds.12 mph72%30.12 "HgN/A
12:20 PM54 °FBroken clouds.14 mph72%30.12 "HgN/A
11:50 AM52 °FBroken clouds.13 mph77%30.12 "HgN/A
11:20 AM52 °FBroken clouds.10 mph82%30.09 "HgN/A
10:50 AM50 °FBroken clouds.10 mph88%30.09 "HgN/A
10:20 AM48 °FBroken clouds.8 mph94%30.09 "HgN/A
9:50 AM48 °FLight rain. Partly sunny.7 mph94%30.09 "HgN/A
9:20 AM48 °FLight rain. Partly sunny.10 mph87%30.07 "HgN/A
8:50 AM48 °FLight rain. Overcast.14 mph87%30.07 "HgN/A
8:20 AM48 °FMore clouds than sun.16 mph87%30.04 "HgN/A
7:20 AM52 °FLight rain. Overcast.5 mph88%30.01 "HgN/A
6:50 AM50 °FLight rain. Overcast.5 mph88%30.01 "HgN/A
6:20 AM50 °FLight rain. Passing clouds.6 mph88%30.01 "HgN/A
5:50 AM50 °FPassing clouds.6 mph88%30.01 "HgN/A
5:20 AM50 °FClear.3 mph82%30.01 "Hg10 mi
4:20 AM50 °FClear.3 mph82%30.01 "Hg10 mi
3:20 AM46 °FClear.7 mph87%30.01 "Hg10 mi
2:50 AM46 °FClear.5 mph87%30.01 "Hg10 mi
2:20 AM48 °FClear.3 mph82%30.01 "Hg10 mi
1:50 AM48 °FClear.No wind82%30.04 "Hg10 mi
1:20 AM52 °FClear.2 mph72%30.04 "Hg10 mi
12:50 AM52 °FClear.2 mph72%30.04 "Hg10 mi
12:20 AM52 °FClear.2 mph72%30.04 "Hg10 mi
Weather by CustomWeather, © 2016

See weather overviewHow to use our weather pages